Theta_e
347 346 344 345 347 352 353 353 357 358 357 356 358 361 361 358 359 364 365 364 362 357 354 353 349 350 355 357 355 355 354 355 357 352 353 355 350 349 349 348 347 345 345 346 346 348 345 338 341 344 343 342 342 344 344 345 345 345 343 341 339 339 341 341 341 341 342 342 340 338 335 334 333 334 335 335 337 342 344 346 347 346 346 345 344 343 343 343 343 343 342 343 343 343 343 344 344
345 344 344 348 351 354 352 353 359 358 357 356 359 362 361 359 360 364 364 363 359 353 355 353 349 350 351 350 351 354 356 355 354 351 354 351 350 350 347 347 346 345 346 347 346 348 346 338 339 342 340 340 342 344 345 346 346 346 345 343 342 342 342 342 342 342 343 342 339 336 334 334 334 336 336 334 338 343 345 346 346 346 345 344 343 343 343 344 343 343 342 343 343 343 343 343 343
344 345 347 352 354 354 352 354 359 357 355 356 359 363 361 361 362 362 360 357 355 352 355 353 353 352 349 351 352 356 357 355 353 350 352 351 351 350 347 347 345 345 345 346 346 346 344 338 337 337 336 338 341 343 344 344 345 345 345 342 342 342 341 341 341 341 342 340 337 334 334 336 336 335 334 335 339 343 344 345 346 345 344 343 343 343 343 344 343 342 343 343 343 343 342 343 343
344 348 352 354 353 353 354 357 360 357 355 355 358 361 360 360 360 360 356 353 353 353 355 353 354 352 350 353 352 354 355 355 354 351 353 352 350 350 348 347 346 345 345 345 344 343 343 338 336 336 334 336 339 341 342 343 343 344 343 341 341 341 340 340 341 341 340 339 336 334 335 335 335 334 334 336 339 342 344 344 344 343 343 343 342 343 343 344 343 343 343 343 343 343 342 343 343
346 351 354 355 354 354 356 359 360 358 357 357 358 360 360 358 358 359 355 353 354 355 356 354 355 351 350 352 351 353 354 355 355 353 354 353 350 351 349 346 345 345 344 344 343 342 343 338 335 336 336 336 338 340 340 340 340 341 341 340 340 339 340 339 340 340 340 339 336 334 333 333 333 334 335 338 341 343 343 342 341 342 343 342 342 343 344 344 344 343 343 343 343 343 344 344 344
346 354 355 354 354 353 357 358 357 358 359 358 361 361 358 357 357 357 354 354 354 355 356 355 355 354 352 351 350 352 352 353 354 354 353 352 351 350 348 345 345 344 344 344 343 340 341 339 335 336 338 336 337 338 339 338 338 339 340 340 340 340 340 340 341 341 340 339 336 333 331 332 333 334 337 341 343 343 342 341 341 342 342 342 343 343 343 344 344 344 344 344 343 344 344 344 344
348 356 355 356 355 355 360 359 357 360 359 356 361 361 358 358 356 356 356 357 356 355 357 356 354 356 358 355 352 351 349 349 353 354 352 351 350 348 346 345 345 345 345 344 344 340 340 342 338 336 336 336 337 337 338 337 337 337 338 339 340 340 341 341 342 341 340 338 337 333 330 332 333 335 340 342 343 342 340 340 341 340 342 342 342 343 344 343 344 344 344 344 343 343 344 343 343
353 356 354 356 358 357 360 359 358 360 358 354 357 357 357 357 354 357 359 359 359 358 358 356 353 357 359 354 355 352 350 350 352 353 351 349 347 345 346 346 345 345 345 344 344 343 344 345 342 340 337 335 336 337 336 336 337 338 338 339 340 341 341 341 341 340 340 338 336 331 331 333 334 338 341 342 341 340 339 339 339 339 341 342 343 344 343 343 344 344 344 343 343 343 343 343 344
355 357 355 357 359 358 358 358 358 357 356 353 354 355 355 355 352 357 360 359 358 359 359 355 353 356 355 351 352 351 351 350 350 352 351 349 346 345 345 345 344 344 345 345 345 344 346 347 345 344 342 340 338 337 336 337 339 339 340 341 341 341 341 340 340 340 338 335 332 331 333 334 337 340 341 340 339 338 338 338 338 340 341 342 343 344 343 343 344 344 344 344 343 344 344 346 346
355 357 355 358 359 357 355 356 357 356 355 353 353 353 354 354 352 355 359 359 358 359 358 353 354 355 354 352 352 351 351 348 350 353 352 352 350 348 346 344 343 342 344 344 345 344 345 347 347 346 345 345 343 340 339 340 341 340 341 342 342 342 341 341 339 337 334 332 331 333 336 338 341 341 340 339 338 337 337 337 338 340 341 343 344 343 343 343 343 344 343 344 344 345 346 348 347
356 356 354 360 359 354 355 355 356 355 353 353 353 352 353 354 353 355 356 358 358 359 358 355 356 354 353 353 352 352 350 349 350 353 354 354 354 353 351 348 343 341 342 342 343 344 344 347 347 346 345 345 343 342 341 341 341 341 342 342 342 341 340 338 335 334 332 332 334 337 340 341 342 340 339 337 336 336 336 337 338 340 341 343 343 342 342 342 342 343 344 344 344 345 347 348 348
357 357 359 363 358 355 356 356 356 356 355 355 353 350 352 353 355 357 356 358 358 359 359 358 358 355 356 355 353 351 349 350 351 353 354 354 355 355 354 354 348 341 341 341 342 343 343 344 346 345 343 343 342 342 342 341 341 341 342 340 339 337 336 334 333 334 334 337 340 341 342 341 340 339 337 335 334 335 336 337 338 341 343 343 342 341 341 341 342 342 343 344 344 346 347 348 348
356 358 365 363 358 360 359 357 358 357 359 357 353 350 351 352 355 358 357 357 358 361 360 358 357 357 360 357 353 351 349 352 352 353 353 354 355 355 355 355 350 342 341 341 341 342 342 343 343 344 343 342 341 341 342 341 341 341 340 338 335 334 334 335 336 338 340 342 342 342 342 340 340 338 335 333 335 336 336 338 341 343 342 340 340 341 341 342 342 343 344 346 346 347 347 348 347
356 355 365 364 358 363 359 358 358 357 359 355 351 350 352 352 354 358 359 360 359 359 359 358 356 355 357 354 352 351 349 351 352 352 352 352 353 355 356 354 347 340 341 341 340 341 341 341 341 342 343 342 342 341 341 340 339 338 338 336 335 335 336 338 340 342 343 342 342 341 341 340 339 335 333 334 336 337 339 341 343 342 340 338 340 341 342 344 344 344 346 346 345 345 347 348 347
355 351 363 367 358 361 358 358 358 358 359 354 350 351 352 352 355 358 358 362 359 356 358 357 356 356 356 353 352 349 349 351 350 351 351 351 351 352 354 353 346 340 341 340 340 340 339 339 340 340 340 341 339 339 338 337 337 337 338 339 340 340 340 341 342 343 342 342 341 340 340 340 336 333 334 335 337 339 342 343 342 340 339 340 341 343 346 348 347 346 346 346 344 344 347 348 347
354 352 365 367 356 359 360 358 358 360 360 353 349 351 353 354 356 358 358 359 358 357 357 356 356 357 356 352 350 348 350 351 351 351 351 351 351 350 351 352 346 342 343 342 341 340 339 338 338 338 339 338 338 337 338 338 339 340 341 341 340 340 339 340 342 341 341 342 341 340 339 337 335 336 337 337 339 342 343 343 340 340 340 342 344 347 348 348 347 346 346 345 345 345 346 347 346
352 353 366 362 356 360 360 360 360 360 361 356 350 352 356 357 357 358 358 357 357 357 356 356 356 356 354 350 350 349 349 350 351 351 352 352 351 350 350 350 347 343 344 343 341 340 339 338 337 337 339 338 338 338 339 340 340 339 339 338 337 337 337 339 341 341 341 343 341 339 338 336 338 341 341 340 341 343 344 342 340 342 345 347 347 347 348 347 346 346 346 346 345 345 346 346 346
351 358 365 357 359 364 359 360 358 357 362 357 353 354 359 360 358 357 357 356 356 357 356 356 357 355 353 350 350 349 349 350 351 351 351 351 352 351 350 349 349 346 344 343 342 341 340 339 338 339 340 340 338 338 339 339 340 339 339 339 339 338 339 340 341 341 342 342 341 340 339 340 342 343 343 343 344 344 343 343 342 345 349 349 348 348 349 348 345 344 345 347 346 346 346 346 346
350 364 367 357 361 362 356 356 354 355 360 355 354 356 358 360 357 356 360 358 357 359 358 357 357 355 352 351 350 349 349 349 349 350 351 352 351 350 349 349 349 348 348 348 346 345 345 342 341 342 343 344 342 342 341 341 342 342 343 342 342 340 340 339 338 339 341 343 344 344 342 343 344 343 343 344 345 345 345 346 347 348 349 350 349 349 350 349 347 345 345 347 347 347 347 346 346
348 362 366 357 357 357 353 354 353 355 356 354 355 355 358 358 355 355 359 358 358 360 359 357 357 355 352 352 350 349 349 348 349 349 350 351 351 350 349 349 349 349 349 349 348 350 350 347 345 343 345 348 347 347 346 346 346 345 345 344 343 344 342 340 337 339 343 345 347 346 345 345 345 344 344 346 347 347 347 349 350 350 350 349 349 349 350 349 348 348 347 346 347 348 348 346 345
346 357 362 356 355 357 355 354 354 353 353 354 355 356 359 358 355 355 357 361 360 358 358 357 356 354 353 353 350 349 349 349 348 349 349 350 350 349 349 349 349 349 348 349 348 347 348 349 348 345 344 348 349 348 349 348 347 345 346 346 346 347 346 343 341 342 345 346 346 346 346 346 346 346 346 349 349 348 350 350 350 350 350 349 349 349 350 349 349 350 348 347 347 347 346 345 344
350 351 355 354 355 358 356 354 353 354 353 355 356 359 360 356 356 355 357 364 362 356 357 357 354 354 353 352 350 350 350 349 349 348 350 350 350 349 349 350 349 350 350 349 347 346 345 346 348 345 344 347 347 348 350 348 346 346 346 348 348 349 350 348 346 346 348 348 348 347 347 347 348 349 349 350 350 350 351 350 349 349 349 349 349 349 349 349 349 349 348 347 347 345 344 344 345
354 351 351 353 355 357 356 354 353 354 356 357 358 359 358 357 358 357 356 360 358 355 357 356 354 354 353 352 350 349 351 350 348 348 349 349 349 349 349 350 350 349 348 347 346 346 348 346 347 346 345 346 345 346 348 347 347 346 346 348 349 350 351 351 352 351 351 351 350 350 348 348 350 350 350 350 351 350 350 350 349 349 348 349 349 349 349 349 349 348 347 347 346 345 342 343 346
352 351 351 352 354 356 356 354 354 355 356 356 357 357 357 357 358 357 356 357 355 355 357 354 354 355 353 353 351 350 350 350 349 349 349 349 349 350 350 350 350 348 347 348 346 347 348 346 346 346 347 347 345 345 345 346 347 347 347 349 350 350 351 351 353 354 353 352 352 352 350 348 349 350 350 350 350 350 350 349 348 348 348 348 349 349 348 348 348 348 346 345 346 346 343 342 345
349 350 351 352 353 354 355 355 355 356 356 356 356 356 357 356 355 355 356 356 355 356 357 354 354 355 354 354 352 351 351 351 350 349 349 349 349 349 350 350 350 349 348 348 347 347 349 346 346 347 347 348 347 345 343 344 346 347 348 349 350 351 350 350 351 352 352 352 352 352 351 350 349 349 349 349 350 350 349 348 348 348 348 348 349 348 348 348 348 348 346 344 345 345 342 342 344
349 350 351 352 352 352 354 356 356 356 356 355 356 357 357 355 354 353 355 355 355 357 358 356 356 355 355 354 354 353 352 352 350 350 350 348 349 349 348 348 349 349 349 349 346 347 348 345 345 346 347 347 347 346 345 344 347 348 348 348 350 351 351 350 350 350 350 350 351 352 352 351 350 349 349 350 350 350 349 349 348 348 349 348 348 348 348 348 348 349 346 343 343 342 340 341 344
350 351 351 352 352 353 354 355 356 356 356 354 358 360 357 354 357 355 354 355 355 357 358 357 357 355 355 355 355 354 353 353 352 351 350 348 349 349 348 347 347 348 348 348 347 346 348 346 344 345 347 347 347 346 346 348 350 350 350 350 351 351 352 352 351 351 351 351 351 351 352 352 352 351 349 349 350 349 349 348 348 349 349 348 348 348 348 348 349 349 346 341 340 341 339 340 343
350 350 352 353 353 353 353 355 355 355 356 354 357 360 355 352 358 357 352 354 355 356 357 357 357 356 355 355 355 355 354 355 354 351 349 348 348 348 348 345 345 347 346 347 347 345 346 345 344 345 346 346 347 346 347 349 350 351 351 351 351 351 352 352 352 350 349 351 352 351 352 351 352 352 350 350 350 349 348 348 348 348 348 348 348 348 348 349 350 349 346 341 339 339 338 340 342
349 349 352 353 353 353 352 354 353 353 357 354 355 359 358 358 358 355 353 353 353 354 355 356 356 356 356 355 356 355 354 356 356 353 349 347 346 348 347 346 345 346 346 345 345 345 345 344 344 345 345 346 347 345 347 350 350 351 352 352 351 349 349 350 350 350 346 345 350 352 351 350 351 351 351 351 350 349 349 348 348 348 348 348 347 347 348 349 349 347 345 343 340 339 339 340 340
347 346 350 354 354 354 352 353 352 354 355 353 356 355 358 364 357 352 354 351 352 354 355 356 356 356 356 355 355 355 355 356 356 354 350 346 346 347 345 346 345 345 348 345 342 344 345 344 344 344 344 345 345 345 348 350 350 351 352 353 353 351 351 351 350 351 348 346 348 350 350 350 349 350 349 350 349 348 348 350 348 348 347 347 346 347 347 347 346 345 345 344 342 340 340 341 340
346 345 349 355 354 352 352 352 352 356 353 352 358 353 354 365 356 351 354 351 352 353 354 355 354 355 356 355 356 355 355 354 355 354 351 347 345 346 344 344 345 345 348 347 344 344 343 343 344 344 345 346 346 347 350 351 350 351 352 353 353 353 353 353 352 352 352 351 351 350 350 349 350 351 350 350 349 348 348 349 349 348 348 348 347 346 346 346 345 345 344 343 342 341 340 341 341
346 343 342 348 350 350 352 351 352 356 354 352 356 352 354 360 354 351 353 351 352 351 352 353 352 354 355 355 355 354 353 351 352 352 351 347 345 347 344 341 343 346 348 348 346 345 342 343 343 344 346 347 347 346 348 351 352 353 354 354 354 354 353 353 353 352 352 352 352 352 350 350 351 352 351 350 351 350 350 349 348 348 348 348 348 347 347 347 346 344 343 343 343 342 341 341 341
342 343 338 341 346 348 350 350 349 353 355 354 353 355 357 357 351 351 351 352 352 351 351 352 351 351 352 353 353 353 353 351 352 352 351 349 346 348 347 343 342 346 350 347 347 347 343 343 345 346 348 348 347 347 347 350 352 354 354 354 354 353 353 353 353 353 353 352 352 352 350 350 351 353 353 352 352 351 352 351 350 349 348 347 347 348 348 347 345 343 343 344 342 342 341 341 341
336 341 340 342 345 346 348 349 348 350 354 355 354 357 359 354 351 351 351 351 350 350 351 351 350 350 350 351 351 353 354 354 355 354 354 353 350 350 351 347 344 346 350 348 347 348 346 346 345 345 347 347 348 348 348 347 348 351 352 353 354 354 354 353 354 353 353 353 351 351 351 351 351 351 351 350 351 351 352 352 353 351 349 348 347 347 349 348 345 343 344 343 342 342 341 340 341
333 336 339 340 343 345 346 346 347 350 353 353 352 355 357 354 351 350 350 350 350 351 350 350 350 349 349 349 350 353 354 354 355 355 355 355 353 351 350 350 347 346 350 349 347 349 348 348 348 347 347 347 347 346 345 345 345 348 349 349 350 351 353 353 353 353 353 352 351 349 349 351 351 350 349 349 350 352 352 353 354 352 351 351 349 349 350 348 345 344 344 342 342 342 340 340 340
336 338 339 339 341 343 344 346 346 350 355 355 355 355 355 354 351 350 349 350 351 351 351 351 350 349 350 350 351 353 354 354 354 355 357 354 351 349 349 352 351 348 350 350 349 350 349 349 350 349 349 348 348 347 345 345 346 349 348 347 346 348 349 350 351 351 351 351 350 349 349 350 351 351 350 350 350 352 352 353 356 354 352 352 349 350 351 347 345 344 343 342 342 341 341 340 340
337 339 340 342 341 341 343 345 343 348 357 355 356 355 354 354 353 350 348 351 352 351 351 352 351 351 350 351 351 352 353 353 354 354 355 352 348 349 350 352 351 348 349 351 351 351 350 350 349 349 351 351 351 350 350 349 349 350 350 349 348 348 349 349 350 351 351 351 351 350 350 350 351 352 352 352 352 353 351 351 353 354 352 350 348 350 350 346 345 344 343 342 342 341 341 341 341
338 340 340 340 340 340 342 345 343 349 358 355 355 355 353 353 352 350 349 353 354 351 350 351 351 351 350 350 351 352 353 352 354 355 355 352 351 351 351 351 351 349 349 350 351 351 352 351 350 349 350 352 352 352 353 352 351 351 350 349 350 349 349 349 350 351 351 351 350 349 349 350 350 351 352 353 354 354 353 351 351 352 351 351 350 351 348 345 345 344 343 342 341 341 342 342 342
339 341 339 336 339 341 341 345 345 346 354 355 354 354 354 355 352 350 350 353 353 350 350 351 349 350 351 350 350 350 352 352 354 357 357 355 354 352 352 352 352 351 350 350 350 350 350 351 351 350 351 352 352 351 350 350 350 351 350 349 350 350 350 351 351 351 351 351 350 350 351 351 351 351 351 351 352 352 352 351 351 353 352 352 352 350 347 345 345 344 343 342 341 341 342 343 342
339 341 336 335 339 339 337 342 346 345 348 351 353 356 357 357 356 354 352 351 352 351 350 350 350 350 350 349 350 351 351 353 356 357 358 357 356 354 354 354 354 353 353 352 351 351 351 351 350 350 352 352 351 350 349 349 348 349 350 350 351 351 351 352 351 351 351 352 352 352 352 352 351 351 350 350 350 350 351 350 351 352 352 352 353 349 346 345 344 344 342 341 341 342 342 342 342
334 339 337 335 338 339 338 341 344 344 345 348 354 354 354 359 360 358 355 354 354 353 352 352 350 350 349 349 350 351 351 354 357 357 358 358 356 355 355 355 355 355 355 354 354 353 352 352 352 352 354 353 352 351 350 349 348 350 352 352 352 353 352 351 351 351 352 351 351 350 350 350 350 350 349 349 349 348 349 350 350 350 350 350 350 347 345 345 344 343 342 342 341 342 342 342 342
329 334 338 337 339 341 341 342 342 341 340 344 349 345 344 354 359 358 358 358 357 355 352 353 352 350 349 350 351 352 354 357 358 357 357 357 356 356 355 355 356 356 356 356 355 353 351 351 352 352 353 353 352 351 351 351 350 351 353 352 353 353 352 351 351 351 351 349 348 348 347 348 349 349 348 348 348 348 349 349 348 347 347 346 346 345 344 343 342 342 342 342 342 342 342 342 342
326 329 336 339 341 340 339 341 339 336 337 343 344 339 337 344 351 358 359 360 361 357 354 352 352 353 350 350 353 355 357 359 359 359 358 358 358 358 357 357 358 357 356 356 354 352 349 350 351 352 353 354 353 353 352 352 352 353 353 354 353 352 351 352 350 349 347 347 347 347 347 348 349 348 347 347 347 348 348 347 346 345 344 344 344 342 342 341 341 342 342 342 342 342 343 342 341
327 330 335 337 340 339 340 339 336 336 339 341 340 340 338 337 344 356 358 360 363 361 361 356 352 354 353 352 355 358 359 358 359 359 358 359 359 358 358 356 356 357 356 356 354 353 352 352 353 353 354 354 354 354 353 352 353 354 354 353 352 351 351 350 347 346 345 346 347 348 348 349 348 347 345 346 346 347 346 345 344 344 344 343 342 342 343 343 342 342 342 342 342 343 343 342 340
332 335 333 333 334 336 338 337 333 336 337 334 335 340 340 336 343 357 357 359 364 365 368 362 355 355 353 353 357 359 359 358 358 359 359 359 358 357 355 353 354 355 354 354 354 353 353 353 353 353 353 353 353 353 353 354 354 353 352 352 351 351 349 347 345 345 344 345 348 348 348 347 346 345 345 345 344 345 344 344 344 344 344 343 343 343 343 343 342 343 343 343 343 342 342 342 341
334 335 333 333 333 331 335 334 331 336 336 331 332 338 338 333 338 351 354 356 362 364 364 360 355 356 354 355 357 358 359 359 358 359 360 360 357 356 355 355 355 354 352 352 352 351 349 350 350 350 351 352 352 353 354 354 353 351 351 351 350 349 346 346 347 345 343 344 346 346 346 345 344 344 343 343 343 343 343 343 343 343 343 343 343 343 342 343 343 343 343 343 343 341 337 336 337
332 333 335 333 334 335 336 336 336 336 333 330 330 334 336 334 338 349 356 361 362 360 358 357 355 356 356 355 356 357 359 357 359 360 361 361 358 357 357 356 356 355 353 353 353 351 349 348 349 349 350 351 353 354 354 351 350 350 351 349 348 347 346 347 347 344 343 343 344 344 343 342 343 342 341 342 342 342 342 342 342 342 343 342 342 342 343 343 343 343 343 343 342 339 335 330 329
331 334 335 326 333 342 337 338 340 334 329 330 331 334 335 336 341 349 355 360 359 354 356 358 356 355 356 355 355 356 356 356 357 359 361 360 358 358 358 357 357 355 354 355 353 351 350 350 351 351 351 352 352 352 351 350 350 350 349 347 347 347 346 347 346 345 344 343 342 342 341 341 341 341 340 341 341 342 341 341 341 341 342 342 342 343 342 342 342 342 342 340 340 339 337 333 327
331 333 333 325 329 335 329 330 334 332 330 331 334 339 338 338 344 347 350 353 351 349 351 355 354 354 355 356 355 355 356 356 356 358 360 359 359 359 359 358 356 356 355 354 353 351 351 351 351 350 350 350 350 350 349 349 348 348 346 346 347 347 346 346 346 346 344 343 342 341 340 339 339 339 339 339 340 340 340 340 341 341 342 343 343 343 343 342 341 340 339 338 337 337 336 335 327
330 329 331 325 324 327 323 323 327 329 330 330 334 340 337 337 344 346 349 349 346 346 349 352 353 352 354 354 354 355 357 357 357 358 358 358 359 359 358 357 356 356 355 354 353 352 352 351 350 348 348 349 349 349 350 348 347 347 345 347 347 346 346 346 346 346 345 344 342 341 341 340 339 339 340 341 342 342 341 342 343 344 343 343 342 342 341 341 339 338 338 335 335 334 331 327 321
332 331 333 324 323 327 323 323 327 328 330 332 336 338 334 337 344 345 345 345 345 347 350 351 351 350 351 351 353 356 356 357 357 358 357 357 358 358 357 357 357 356 354 353 353 352 350 349 348 348 347 348 349 350 350 348 345 345 345 346 346 346 346 346 346 346 345 344 343 343 343 343 342 342 343 344 344 344 344 344 345 345 344 343 342 341 340 340 339 337 336 334 333 331 323 316 314
334 332 328 323 327 331 324 326 329 328 331 334 333 334 337 344 348 343 343 345 345 347 349 350 351 351 351 351 353 356 355 356 357 357 357 356 356 357 357 357 358 357 354 352 352 349 348 348 348 348 348 348 349 350 348 345 343 344 345 345 346 346 346 346 346 345 345 346 345 345 345 345 345 344 344 344 344 345 345 345 344 344 343 343 342 341 340 339 338 336 334 332 330 324 316 312 313
333 329 325 325 332 334 326 325 329 331 335 334 330 334 338 343 345 340 343 348 346 347 347 347 348 350 351 352 354 355 354 356 357 357 356 356 355 354 356 357 357 357 355 354 352 348 348 348 348 348 348 348 348 347 345 344 344 344 345 345 345 345 346 346 346 345 346 346 346 345 345 345 345 345 345 345 345 345 345 345 344 343 343 342 339 338 338 337 336 335 333 330 326 318 312 312 313
332 326 328 331 331 333 331 327 328 334 335 331 330 333 334 336 341 342 347 349 349 350 347 346 347 348 350 352 353 354 355 356 356 356 356 356 355 354 356 357 356 357 356 354 351 349 348 348 346 347 347 347 347 345 345 344 344 344 345 345 346 346 347 346 346 346 345 345 345 345 345 345 345 345 345 345 345 345 344 344 343 343 342 341 338 337 336 335 333 332 331 328 322 315 315 318 319
331 328 332 332 324 325 329 325 325 330 331 331 330 331 332 335 339 343 346 347 349 351 350 349 349 348 349 351 352 353 355 355 356 356 356 355 355 355 356 356 356 357 356 353 350 350 350 348 346 346 346 345 344 342 342 342 344 345 346 346 346 346 347 347 347 346 345 345 345 345 345 345 345 345 345 345 345 345 344 343 343 342 341 341 339 338 336 335 333 331 328 322 315 317 322 324 324
330 330 332 331 326 325 325 325 327 329 331 333 332 330 336 344 344 342 345 346 347 350 353 351 348 348 350 351 352 354 355 356 355 354 354 353 352 353 354 356 356 355 353 351 351 352 352 349 346 347 347 346 345 341 341 343 345 345 346 346 346 346 346 346 346 345 345 345 345 345 345 345 345 346 345 345 345 344 344 343 343 343 342 341 340 338 336 334 329 325 322 317 311 316 323 325 326
327 327 326 326 327 327 325 324 328 330 331 333 333 332 339 351 347 342 344 347 346 347 350 349 346 348 349 349 351 353 354 356 354 352 351 350 349 350 352 354 355 354 353 352 351 351 353 351 348 349 349 349 349 346 343 345 345 345 345 345 345 344 344 345 345 344 344 344 345 345 346 346 346 345 345 345 345 344 344 344 343 343 342 341 338 336 334 328 321 321 322 320 317 316 317 320 324
330 329 327 325 326 323 320 320 325 330 329 330 333 332 341 353 344 338 344 344 342 344 345 346 347 349 348 348 350 350 351 353 351 349 349 348 347 347 348 351 352 352 353 354 352 350 350 350 350 351 351 351 350 349 346 345 345 346 346 345 344 345 344 344 344 344 344 344 345 346 345 345 345 345 345 345 345 345 344 344 344 343 340 338 336 334 332 324 318 322 327 326 326 321 314 313 317
Wind_Speed
10 9 11 11 9 6 4 2 1 2 1 1 1 0 1 0 1 0 1 3 2 6 10 15 14 10 12 11 12 13 13 3 4 4 5 11 19 22 21 22 24 25 25 25 25 25 24 24 24 24 23 22 21 20 20 19 19 18 18 18 18 17 16 16 15 14 13 12 11 10 9 8 7 7 6 5 5 5 4 4 3 2 1 1 1 1 1 2 2 3 3 3 4 4 4 3 3
9 9 11 9 6 2 1 1 1 1 1 1 1 0 1 2 2 2 2 3 3 8 13 13 20 15 16 15 11 12 15 10 6 14 18 22 24 22 21 23 24 25 25 24 24 24 24 24 24 24 23 22 21 20 19 18 18 17 17 18 17 16 16 15 14 13 12 11 10 9 8 7 6 5 4 3 4 4 3 3 2 1 0 2 2 2 3 3 3 3 4 4 4 4 4 4 4
6 7 7 6 2 3 2 2 1 1 2 1 2 1 2 1 1 3 2 5 8 9 10 8 16 12 14 11 8 8 7 11 19 28 27 25 24 23 22 23 24 24 24 23 22 23 24 24 23 23 23 22 21 19 18 18 17 16 16 17 16 16 15 14 13 12 11 10 9 8 7 6 5 4 2 2 3 3 2 2 1 0 1 3 3 3 3 3 3 3 4 4 4 4 4 4 4
4 5 4 4 2 3 2 1 1 1 1 2 2 2 2 3 2 2 3 6 7 8 8 6 10 11 17 13 9 11 9 12 21 28 28 23 22 24 24 23 24 24 24 23 21 22 23 23 23 23 22 22 21 19 18 17 16 16 15 15 15 15 14 13 12 11 10 10 9 7 6 5 3 2 1 2 2 2 1 1 0 1 2 3 3 3 2 2 3 4 4 4 5 5 4 4 4
3 2 2 3 0 0 1 1 1 2 1 2 2 2 2 3 2 2 3 5 5 7 9 4 7 10 16 13 8 9 13 15 16 22 26 22 19 22 24 25 25 24 23 22 22 21 22 23 23 22 21 21 20 19 17 16 15 14 14 13 13 13 12 11 11 11 10 9 8 6 4 3 1 1 0 1 1 1 1 1 1 1 2 2 2 2 2 2 3 4 4 5 5 5 5 5 5
4 2 1 2 1 2 1 1 1 2 1 1 1 2 3 2 2 2 1 6 7 7 8 6 9 11 11 11 12 13 16 16 16 20 23 22 19 20 24 25 24 23 22 22 21 21 21 22 23 21 20 19 18 18 16 15 14 13 12 12 11 11 11 11 10 10 9 7 6 5 3 2 2 1 0 1 1 1 2 1 1 1 1 2 2 2 2 3 4 4 5 5 6 6 6 6 6
5 1 1 1 1 1 1 1 1 1 1 1 1 1 3 3 3 2 1 3 6 7 8 8 9 10 6 7 12 14 13 13 20 21 20 21 20 21 24 25 23 23 22 21 20 20 20 20 21 20 18 18 17 16 16 14 13 12 12 11 11 11 10 10 10 9 7 6 5 3 3 3 3 2 1 0 1 1 1 1 1 1 1 1 2 3 3 4 4 4 5 6 6 7 7 7 7
4 1 1 1 1 2 1 1 1 1 2 1 2 1 4 5 4 2 2 2 2 4 7 8 10 8 5 8 10 14 13 12 19 20 19 21 21 22 23 23 23 23 22 21 20 20 20 19 19 18 17 16 16 16 15 14 13 12 12 11 11 11 10 9 9 7 6 5 5 4 4 4 3 1 0 1 1 0 0 1 1 2 2 2 3 4 4 4 4 5 6 6 7 8 8 8 8
5 3 2 2 2 2 2 2 1 0 1 1 2 2 4 7 5 4 3 3 2 5 8 5 6 7 9 15 16 18 16 14 18 19 18 20 20 21 22 22 22 22 22 21 20 19 19 19 18 17 16 15 15 15 15 14 13 13 12 12 11 11 10 9 8 6 6 5 5 4 4 3 2 1 1 1 1 1 0 1 1 2 3 3 3 3 4 4 5 5 6 7 8 8 9 9 9
5 4 1 1 2 1 1 2 2 1 2 0 2 2 2 5 5 5 4 4 4 6 10 9 10 12 14 15 15 20 19 17 19 18 18 19 18 17 18 19 19 21 21 21 20 19 18 18 17 16 15 15 15 15 15 15 14 13 12 12 12 11 10 8 7 6 6 6 5 4 3 2 1 1 1 1 1 1 1 1 2 3 3 3 3 3 4 5 6 6 7 8 9 10 10 10 11
4 3 2 1 2 2 2 2 2 2 2 1 2 4 1 4 5 5 5 5 5 5 8 11 11 13 15 12 15 23 20 16 18 20 21 19 17 14 13 15 17 19 19 19 19 18 18 17 16 15 15 15 15 15 15 14 13 12 12 12 12 11 9 8 8 7 7 5 5 4 3 2 2 2 2 1 1 1 1 2 3 3 4 3 3 4 5 6 7 8 8 9 10 11 10 11 12
3 1 1 2 2 1 1 2 1 1 1 1 3 4 2 2 2 4 4 4 6 6 6 6 5 9 10 9 17 23 19 17 19 22 23 22 20 15 11 11 13 16 17 17 17 18 18 18 17 15 14 14 14 14 14 13 12 12 11 11 11 10 9 9 8 7 7 5 4 3 3 3 3 2 2 1 2 2 2 2 3 3 4 3 3 5 6 7 8 9 9 9 11 11 11 12 12
7 2 3 2 0 1 0 1 2 1 1 3 3 1 2 1 1 2 4 5 5 5 6 6 6 7 5 8 18 24 22 22 23 23 23 22 20 16 12 11 12 16 16 16 16 17 17 17 17 16 15 14 14 13 13 12 11 11 10 10 9 9 9 9 9 8 6 5 4 4 4 4 3 2 2 2 2 2 2 2 3 3 4 4 4 5 7 7 8 9 9 9 12 12 12 13 13
10 4 3 2 1 1 1 0 1 1 1 3 2 2 1 3 3 3 3 6 6 5 5 6 9 9 7 10 17 25 26 26 26 23 20 17 16 14 12 11 14 16 15 16 15 16 16 16 16 16 15 14 14 13 12 11 11 10 9 9 9 9 9 9 9 7 6 5 5 5 5 4 3 3 3 3 2 2 2 2 3 3 4 4 4 5 7 8 9 9 9 10 12 13 13 14 15
13 6 2 2 1 1 1 1 1 2 0 1 0 2 2 3 5 4 4 6 5 7 6 7 10 7 7 10 14 24 27 27 26 21 18 15 13 11 11 11 14 16 15 15 14 14 14 15 15 15 14 14 13 12 12 11 10 10 9 9 9 8 8 8 8 7 6 6 6 5 5 3 3 4 3 3 2 2 2 3 3 3 3 4 4 5 7 8 8 9 9 10 12 14 15 15 16
15 7 1 2 1 1 1 0 0 1 1 1 3 3 3 2 3 3 4 8 7 8 7 7 7 4 10 14 19 26 27 26 23 21 19 17 15 13 12 11 13 15 15 14 14 13 13 13 14 14 13 12 11 11 11 11 10 10 9 9 9 8 8 8 8 7 6 6 6 5 4 4 5 4 3 2 2 2 3 2 2 3 3 4 4 6 7 7 8 9 9 10 11 14 16 16 16
11 5 2 2 1 0 2 3 2 3 2 3 7 7 3 3 4 6 8 11 9 6 6 6 6 8 13 19 24 25 26 25 23 24 22 20 18 16 14 13 14 14 14 13 13 13 13 13 13 13 13 11 11 11 10 10 10 10 10 9 9 9 9 8 8 7 6 6 5 4 4 4 4 3 3 2 1 1 2 2 2 3 5 5 5 6 6 7 8 9 9 10 11 14 17 17 15
9 2 1 2 0 1 2 4 4 5 3 4 8 8 5 5 6 8 9 8 8 6 6 6 7 12 17 21 22 21 25 25 25 27 24 23 21 17 15 14 13 13 13 12 12 12 12 11 11 12 13 12 11 11 10 10 10 10 9 9 8 8 8 8 7 6 6 5 4 4 4 4 4 3 3 2 1 1 1 1 2 4 5 5 5 6 6 7 8 9 10 10 12 14 17 17 14
9 2 2 1 2 1 2 7 9 7 7 8 8 7 5 6 7 7 5 4 6 6 5 7 9 14 19 20 18 21 26 25 25 25 24 24 21 17 16 14 12 11 12 12 11 12 11 11 10 11 11 11 11 11 11 10 9 9 8 8 8 8 7 7 7 7 7 6 5 4 5 5 4 4 3 3 2 1 0 1 3 4 5 5 5 5 5 7 8 10 11 11 12 15 17 17 13
8 4 3 1 3 3 6 13 13 11 12 10 7 7 6 7 8 8 6 5 4 3 5 7 9 17 20 17 18 24 25 23 23 21 21 22 18 16 14 14 12 9 9 9 10 12 11 10 9 9 11 11 11 10 10 10 9 8 8 7 7 6 6 6 6 7 6 5 5 5 5 4 4 4 4 3 2 1 1 0 2 3 4 4 4 5 5 7 8 9 12 11 11 14 16 17 12
6 5 2 5 8 5 8 14 13 13 15 12 8 7 6 7 8 10 10 6 1 4 7 8 15 22 20 16 20 24 21 21 22 19 20 20 16 14 12 11 9 7 7 6 9 12 10 9 9 9 11 10 9 9 9 9 8 7 8 8 7 6 6 6 5 5 5 5 4 4 4 4 5 5 4 2 0 1 1 1 1 1 3 3 3 4 6 7 7 9 12 12 12 13 15 15 11
4 5 9 13 12 6 10 15 15 17 13 11 10 7 7 7 8 11 11 5 2 8 9 11 19 22 18 17 20 22 20 20 21 19 19 18 15 14 14 12 10 8 8 7 8 9 7 7 9 10 10 8 6 6 7 8 8 7 7 7 6 5 4 4 4 4 4 4 4 4 4 4 4 4 3 1 2 2 2 2 1 1 2 3 4 5 6 7 8 10 12 14 13 13 15 14 11
6 5 12 15 14 10 14 18 17 18 13 11 10 9 11 9 6 9 9 3 4 10 12 15 20 19 17 17 19 21 18 17 20 18 17 18 16 17 17 15 13 11 10 8 7 7 6 6 9 9 8 4 3 5 8 8 7 6 7 6 4 3 3 3 2 2 2 2 2 2 3 4 4 2 1 1 4 4 4 4 3 3 3 4 5 6 7 8 9 11 14 14 14 13 15 14 11
11 6 10 14 16 16 19 20 18 18 15 12 12 10 10 9 7 9 7 3 7 12 15 18 19 17 15 16 18 21 17 16 20 18 15 18 18 17 18 18 14 12 12 10 9 7 6 7 8 8 6 3 3 5 8 8 6 5 6 7 5 4 4 4 3 2 2 2 0 2 2 3 4 4 2 2 4 5 5 5 5 5 5 5 6 7 9 10 11 13 14 15 14 14 15 15 11
10 8 11 14 15 18 21 21 20 18 15 13 13 9 8 9 10 9 7 7 12 16 17 19 18 15 15 16 18 20 18 16 19 17 14 17 16 12 13 17 17 14 13 12 11 8 8 9 8 7 6 5 5 5 7 8 6 4 6 7 5 4 5 5 5 5 5 4 3 3 3 4 5 6 5 4 5 6 5 5 7 7 7 8 8 9 10 12 13 13 14 16 15 15 16 15 11
10 13 14 14 15 18 20 19 19 17 15 15 13 7 8 11 9 7 10 12 15 18 18 18 18 16 16 16 16 19 19 16 17 16 16 17 15 11 8 12 19 19 16 15 13 10 10 11 9 8 8 8 8 6 5 5 3 3 4 5 4 5 7 7 7 8 8 7 6 6 6 7 6 6 7 5 5 5 6 7 9 9 9 9 10 9 12 13 13 12 14 16 16 16 17 15 11
17 21 17 16 18 19 20 17 17 16 15 17 12 6 10 12 6 4 11 15 16 18 18 18 20 18 17 17 16 18 19 17 17 16 17 18 17 14 7 9 17 16 15 19 18 13 12 14 12 10 11 11 10 7 4 3 2 3 3 4 6 7 8 8 9 10 11 11 9 8 8 10 10 9 8 7 7 6 7 8 9 10 9 9 10 10 12 13 12 12 14 16 16 16 17 16 11
23 22 15 14 17 16 17 15 15 13 10 17 13 6 8 9 3 5 15 19 19 21 19 18 21 20 18 17 16 17 18 16 16 18 18 20 18 14 10 12 14 8 7 17 21 17 14 16 15 14 14 12 11 8 4 4 4 4 4 5 8 11 11 10 10 10 13 16 14 11 10 9 11 12 10 10 11 10 8 9 10 11 10 10 10 11 12 11 11 13 15 16 17 17 18 16 11
23 20 13 11 11 9 13 13 16 12 6 16 15 6 1 3 4 9 18 22 21 21 19 19 21 22 21 18 17 16 17 15 15 17 17 19 18 15 13 12 11 4 2 9 20 21 16 17 18 16 14 12 10 7 5 5 5 5 4 4 6 9 10 9 8 6 8 14 14 13 12 10 10 12 11 11 13 13 11 12 13 14 13 12 11 10 10 11 13 15 16 17 18 18 18 15 10
17 11 8 9 6 4 11 12 14 9 8 21 14 4 3 5 7 14 19 23 23 21 22 21 20 22 22 20 19 17 17 17 17 17 16 18 19 16 15 13 9 4 3 2 13 20 19 20 21 17 14 12 8 6 6 6 6 6 5 5 5 5 5 5 4 2 3 6 10 12 13 12 12 13 13 12 13 15 15 14 16 16 14 12 10 9 10 13 15 17 17 18 18 18 17 14 9
9 2 3 5 4 2 7 8 10 5 9 23 11 3 5 5 9 19 21 23 23 22 23 22 20 21 22 20 20 18 18 18 17 16 15 16 16 13 14 14 10 6 2 2 5 14 20 22 22 18 14 11 9 7 7 7 7 7 6 7 7 6 6 5 4 3 4 7 9 12 15 15 16 16 15 14 14 16 17 15 16 17 15 13 12 12 14 16 17 17 18 18 18 18 15 11 7
3 3 1 1 3 3 5 7 10 4 8 19 8 3 4 4 11 22 23 22 21 21 20 22 22 21 22 20 18 17 16 16 15 15 14 13 12 10 10 12 12 8 5 4 5 8 15 20 20 17 15 12 11 11 8 8 9 8 8 8 8 7 6 7 8 8 8 10 11 12 14 14 15 18 17 16 16 18 19 16 17 19 18 17 16 15 16 16 16 16 16 17 18 16 12 7 6
3 4 2 1 3 3 3 6 12 7 7 11 6 3 2 2 12 23 24 22 20 19 19 22 24 21 21 19 18 17 16 16 15 13 11 10 10 9 8 10 12 11 6 6 7 9 14 17 18 17 17 16 14 14 11 11 11 10 11 10 10 9 7 9 12 13 12 13 14 12 12 10 12 17 17 16 18 20 20 18 17 18 19 19 18 17 16 14 14 14 14 16 16 12 7 5 5
3 2 3 2 4 5 3 4 10 9 6 5 4 5 4 5 13 22 24 23 20 19 20 23 22 21 20 19 18 18 17 17 15 13 10 8 10 9 10 11 13 13 9 8 9 10 14 15 14 14 15 15 15 15 14 14 14 14 15 15 16 14 11 12 13 15 15 17 17 16 14 11 12 15 16 17 19 20 21 22 19 17 17 19 18 16 15 13 13 12 12 15 13 7 5 4 4
5 4 4 3 4 6 5 4 7 8 4 4 6 4 5 5 10 19 23 22 20 20 21 21 19 19 19 19 20 19 18 17 15 14 12 10 11 13 14 14 14 13 11 11 11 11 13 14 14 14 14 14 15 16 15 14 14 14 15 17 19 18 16 16 16 17 18 19 19 19 19 18 17 17 17 18 21 23 24 23 21 19 18 17 17 16 15 13 11 10 12 13 8 4 3 3 4
10 8 7 7 5 4 5 5 7 8 4 3 6 5 5 6 8 14 17 16 17 17 16 16 16 17 19 19 20 19 17 16 12 9 10 12 14 17 18 16 14 15 15 14 13 12 13 15 15 15 14 14 14 15 15 15 13 11 11 13 14 15 15 16 17 18 19 19 18 19 19 20 21 21 21 20 22 25 26 24 22 20 19 18 17 17 14 10 8 8 12 11 4 2 2 2 5
11 9 7 8 6 4 6 6 7 9 6 0 4 6 6 8 8 9 12 11 12 13 12 12 14 16 18 19 20 20 15 13 8 3 9 15 15 16 18 16 15 17 19 18 15 13 14 15 16 15 14 13 13 13 14 14 13 11 10 9 10 11 12 12 14 16 17 18 18 19 20 20 21 22 23 23 24 26 26 27 25 22 21 19 18 18 13 8 5 7 10 7 1 2 1 2 5
13 9 7 8 5 5 7 9 9 7 5 2 4 7 6 8 7 7 12 10 9 14 13 11 13 15 16 17 18 19 15 11 8 5 11 15 13 13 15 16 15 17 20 20 18 16 15 16 16 16 15 14 13 14 14 13 12 12 11 10 10 11 12 13 14 15 17 18 19 20 21 21 21 22 24 24 25 26 26 27 27 28 28 21 20 19 12 6 4 7 7 1 4 5 4 4 5
11 7 6 6 5 4 5 8 10 5 5 3 3 6 5 4 4 7 11 10 9 16 15 12 14 14 14 14 13 14 14 12 9 7 10 12 13 13 13 13 13 14 17 18 18 18 18 17 16 16 15 14 13 13 12 12 12 12 12 12 12 13 13 14 15 16 17 17 18 19 19 19 19 21 23 23 23 24 24 24 23 26 25 20 20 14 7 5 4 4 0 5 7 7 6 6 6
8 7 6 5 6 5 4 6 9 5 4 4 4 4 1 2 4 3 6 9 8 12 13 10 12 11 9 10 10 9 11 11 10 9 10 12 14 15 13 12 12 12 13 13 14 14 16 17 16 16 15 14 13 12 12 13 13 12 12 12 13 14 15 15 14 14 15 15 16 16 16 16 16 17 18 19 19 18 19 18 18 20 19 19 18 9 5 4 1 2 6 8 7 7 7 6 6
4 7 7 6 8 8 6 7 9 5 5 5 6 5 4 3 4 2 0 4 5 6 9 8 9 8 6 7 8 8 9 9 9 11 12 11 13 13 13 13 12 11 11 11 12 12 13 14 15 15 15 14 14 13 14 14 13 12 12 13 14 14 13 12 11 10 11 11 12 12 12 11 11 11 10 12 14 13 13 10 8 9 8 8 10 7 5 3 5 8 9 9 8 7 6 5 5
1 6 9 11 12 9 6 8 9 5 3 4 5 4 3 3 4 3 1 3 4 3 6 8 7 7 6 7 7 8 8 8 8 10 11 10 10 10 12 12 11 10 11 11 12 11 12 13 14 14 14 14 14 14 14 13 12 11 12 13 12 11 9 8 7 7 6 8 10 11 9 7 6 6 6 7 8 7 4 5 10 10 8 8 9 9 10 11 12 11 11 10 8 7 5 5 4
1 5 10 14 13 8 9 11 8 4 2 7 5 2 0 3 1 4 3 4 3 2 5 7 7 8 7 7 8 10 10 9 8 9 9 8 8 8 9 9 8 8 9 9 10 9 10 11 12 12 11 12 12 12 12 12 10 10 10 10 9 7 5 4 3 4 6 8 9 8 5 5 6 7 8 9 10 13 15 15 16 16 16 17 16 16 16 15 13 12 10 8 6 5 4 4 3
2 5 6 13 13 9 12 12 5 3 4 5 5 2 4 1 2 4 3 5 3 3 4 6 7 9 8 9 10 10 10 9 9 9 8 5 5 5 5 5 5 6 7 7 7 8 8 9 9 9 9 9 9 10 10 10 9 8 8 7 6 3 1 3 5 6 6 7 8 7 7 8 8 9 11 13 14 16 17 18 18 19 20 21 20 18 15 13 12 10 7 5 4 3 2 1 1
6 6 3 7 9 8 11 8 3 5 6 3 5 2 4 2 2 2 3 3 3 5 6 6 8 10 10 11 11 10 10 9 8 8 6 4 4 5 4 4 5 4 5 5 5 5 5 5 6 6 6 7 7 7 7 6 6 6 5 3 1 2 5 7 8 7 8 9 9 10 10 9 9 10 12 14 17 19 20 21 21 21 20 19 17 15 13 11 10 7 5 5 4 1 1 2 4
7 4 2 3 2 4 8 7 5 6 6 4 7 2 4 1 3 2 2 2 4 6 6 6 10 12 11 12 11 11 11 10 9 7 5 3 3 4 3 4 4 4 3 4 3 2 2 2 3 4 4 5 5 4 4 4 4 3 1 2 5 7 8 9 9 8 9 10 11 12 12 11 11 12 15 17 20 22 21 21 19 18 17 16 14 13 11 9 7 6 5 4 2 1 2 4 6
4 2 5 6 6 5 6 4 4 6 3 4 5 2 4 1 3 4 4 4 6 6 4 5 10 12 13 13 11 12 12 11 9 7 5 3 3 3 2 1 2 2 2 2 2 2 2 2 2 2 3 3 3 3 3 2 1 2 5 7 8 9 9 8 8 9 10 11 13 13 13 14 15 15 16 18 19 19 18 18 16 15 14 13 12 11 9 7 5 4 4 3 2 4 3 3 5
2 3 5 4 5 5 5 4 4 5 1 4 2 3 4 2 3 6 5 5 7 8 6 6 10 12 14 13 10 10 11 10 8 6 5 4 5 5 2 1 1 2 2 2 3 2 2 2 2 2 3 3 4 4 4 3 4 5 7 9 9 9 8 8 8 10 10 11 12 14 14 15 16 16 16 16 16 15 14 13 13 13 13 11 9 8 7 5 3 2 2 2 5 6 6 6 7
3 3 6 4 3 4 3 2 2 3 2 3 5 5 3 0 4 5 5 5 6 8 11 13 15 16 16 13 10 9 10 9 7 6 5 4 5 6 4 3 2 3 3 3 3 3 2 2 3 4 5 5 6 7 6 5 6 7 8 8 8 9 10 10 10 10 10 10 11 12 13 13 14 15 14 14 13 12 11 10 10 11 11 9 8 7 6 4 2 1 2 4 6 7 8 9 9
5 2 4 4 1 3 2 0 2 2 1 1 2 3 2 2 4 3 4 6 10 14 18 21 22 20 17 14 10 9 9 8 8 7 6 5 6 7 6 5 5 4 3 3 2 3 3 4 5 6 8 8 8 8 6 5 6 6 7 7 8 10 11 11 11 10 10 10 10 11 11 12 12 13 13 13 12 10 10 10 10 10 9 8 7 5 4 2 2 3 4 5 6 7 8 8 8
2 3 5 4 3 3 3 3 3 4 3 1 3 3 3 3 3 4 6 10 16 18 19 22 23 20 17 14 11 10 9 9 9 7 7 7 6 7 7 6 6 5 3 3 2 3 4 6 7 8 9 8 7 6 6 6 6 7 8 10 11 11 11 11 11 11 10 10 10 10 10 10 9 9 10 10 10 9 8 9 8 6 5 5 4 3 3 3 3 4 5 6 8 9 8 7 6
4 1 5 1 4 4 2 3 5 6 4 1 2 1 3 3 1 2 7 11 13 15 17 20 20 19 18 16 13 12 11 10 10 8 7 6 5 5 4 5 6 5 4 4 4 5 7 8 8 7 7 7 7 7 7 7 7 9 11 13 12 11 10 10 10 11 11 11 10 10 10 9 8 7 7 8 8 7 6 5 5 3 3 2 1 3 4 5 6 6 6 7 9 10 7 6 5
2 2 0 4 5 6 4 3 3 6 5 1 1 1 1 2 2 1 5 8 8 11 16 17 18 19 19 17 15 14 13 12 11 9 8 6 4 3 2 3 4 5 5 4 4 6 8 8 7 7 7 8 8 9 8 7 6 9 12 13 11 10 9 9 10 11 11 10 10 9 9 8 7 6 6 6 6 5 4 3 2 2 2 2 2 2 3 6 7 8 9 11 11 9 4 3 4
2 2 5 3 2 4 5 5 3 4 4 1 1 3 3 2 1 3 3 6 5 7 11 14 15 17 16 14 15 13 12 13 11 10 8 5 3 3 2 3 4 4 4 3 3 5 7 7 7 8 9 9 9 8 6 5 7 11 13 13 11 9 7 5 6 9 9 9 8 7 7 6 5 5 5 4 4 3 3 3 2 1 0 1 3 5 5 6 7 9 11 13 11 6 3 5 7
5 4 2 2 2 2 2 3 3 3 3 1 1 0 2 3 3 5 6 6 6 5 7 10 12 15 16 15 14 13 12 12 11 9 7 5 3 3 3 4 5 5 4 3 5 6 7 7 7 9 9 9 9 8 8 9 12 14 13 11 9 6 4 4 4 6 7 7 6 5 5 5 3 3 3 3 2 2 3 4 3 2 2 2 5 7 7 8 9 11 11 11 8 4 4 6 7
2 3 3 2 3 3 2 3 4 5 4 3 0 2 2 4 5 8 10 8 8 8 5 6 11 16 19 18 16 15 13 12 11 8 6 7 5 2 2 4 5 5 4 4 6 7 6 6 8 10 10 10 10 10 12 14 15 13 10 7 7 7 7 7 6 5 5 3 3 3 3 3 2 2 3 2 1 3 3 3 2 3 3 4 5 5 7 10 11 10 9 10 8 4 3 4 6
2 2 3 2 1 0 1 1 2 5 5 3 3 1 4 5 4 8 11 9 9 10 7 7 13 18 19 18 17 16 15 13 12 10 8 7 7 5 1 2 4 4 4 4 3 2 3 4 8 11 10 8 7 9 12 14 13 11 7 6 8 8 7 6 5 4 2 1 1 1 2 2 1 2 2 1 1 3 3 3 3 4 5 6 6 6 9 9 8 9 12 14 14 9 5 5 6
5 4 4 3 1 1 1 2 2 3 5 4 5 3 6 5 4 7 8 8 9 12 13 11 14 19 19 18 18 16 15 13 12 12 11 8 5 3 1 3 4 5 5 4 1 1 3 5 8 11 8 6 7 8 10 11 11 9 7 6 7 7 7 6 3 2 2 2 2 2 3 4 3 2 3 2 1 2 3 4 4 5 5 5 6 8 10 8 7 11 15 17 18 16 12 9 9
Wind_Direction
231 250 290 294 278 279 288 265 48 19 65 7 309 268 338 341 286 226 282 291 317 335 1 53 73 95 105 109 118 87 50 35 191 138 147 144 147 157 158 162 163 160 157 157 158 156 157 157 154 153 154 153 152 150 150 149 148 148 148 147 147 147 147 147 148 146 144 142 139 134 131 131 132 128 122 116 113 116 117 119 122 149 175 130 73 48 26 19 8 358 353 337 328 330 336 327 306
230 262 288 279 277 316 354 17 72 45 78 359 303 204 11 17 341 310 355 338 330 328 336 51 75 80 104 112 103 78 42 24 137 123 120 135 145 155 157 161 165 161 158 159 159 157 158 159 157 156 155 154 153 153 152 151 149 149 149 148 149 150 150 149 149 148 147 145 143 139 135 136 134 129 123 117 117 124 125 134 149 189 120 62 42 32 23 15 13 6 2 353 342 338 338 333 323
239 274 281 259 297 25 26 14 72 116 100 170 273 238 99 81 283 314 343 318 308 317 321 52 72 72 96 92 53 78 65 64 114 121 123 141 151 153 158 163 165 162 161 160 159 159 157 158 159 156 156 156 156 155 154 152 150 150 150 149 150 152 151 150 150 151 150 149 146 141 139 139 137 134 129 117 112 129 140 146 155 345 43 43 28 21 19 15 17 14 12 2 344 338 338 332 326
264 276 281 279 338 33 58 40 225 161 147 177 238 254 141 156 174 290 301 324 319 330 336 50 71 72 85 93 82 83 98 97 114 124 132 151 153 150 158 164 165 163 163 162 159 159 157 157 158 158 159 159 159 158 158 156 153 153 152 150 150 152 152 151 152 154 155 153 149 145 144 144 143 148 126 110 114 136 134 110 358 2 29 29 25 21 21 28 28 17 9 358 340 336 335 327 319
278 240 272 303 126 264 191 164 221 189 200 177 185 243 181 151 133 256 299 10 2 352 350 34 80 86 85 96 107 99 118 115 120 130 139 153 149 150 159 165 165 164 163 162 158 159 160 159 160 160 161 162 163 162 162 161 158 156 154 152 151 153 154 153 154 158 160 158 155 151 150 156 185 225 108 128 145 120 62 17 339 350 19 22 30 30 36 43 30 12 1 351 342 340 336 327 317
250 152 305 300 195 230 227 173 227 213 208 198 193 191 165 138 162 231 332 38 49 43 27 50 91 97 79 79 93 115 130 126 134 140 142 147 147 154 161 164 164 164 163 160 158 159 160 161 163 164 164 165 167 167 167 166 164 161 159 157 156 159 158 158 160 164 167 166 164 159 167 219 260 272 226 177 104 43 9 351 339 352 29 28 44 51 43 33 19 2 353 352 352 350 342 331 322
227 173 358 318 302 326 275 260 269 278 45 265 301 162 153 144 188 186 51 34 55 58 47 57 97 100 74 81 95 114 127 129 139 142 142 143 148 155 160 163 163 165 164 161 159 157 159 163 166 168 169 169 171 171 172 171 170 168 167 167 166 167 166 165 168 171 174 175 175 182 214 249 266 267 249 98 34 15 350 7 33 58 64 43 52 54 38 24 12 358 353 353 354 350 340 330 326
212 229 354 66 26 15 323 326 12 358 13 335 339 332 161 153 174 145 52 27 47 17 34 68 91 82 72 88 96 119 125 127 137 142 140 138 145 151 158 163 164 165 165 163 161 158 160 164 168 169 172 174 177 178 178 177 176 175 175 176 176 174 172 173 175 177 181 190 198 211 234 253 263 272 318 7 359 307 10 64 65 66 70 59 56 51 36 21 9 1 357 351 348 341 333 330 327
212 254 345 76 68 21 306 335 19 183 39 341 339 3 147 153 151 122 73 47 48 19 29 63 98 84 89 86 95 122 126 123 130 138 136 134 141 148 157 163 164 164 163 165 164 165 165 166 169 171 173 177 181 183 184 183 182 181 180 182 182 180 179 180 183 185 195 207 217 228 241 253 262 288 320 294 243 205 99 87 80 74 74 72 65 50 32 22 12 4 356 346 340 332 330 329 322
202 234 299 78 55 29 331 324 325 38 59 260 337 14 140 153 123 101 97 67 29 38 59 83 99 98 99 88 98 124 128 123 123 135 136 130 136 144 155 159 160 160 161 165 166 169 169 169 171 174 177 179 183 185 186 187 187 186 184 185 187 187 187 189 192 198 207 216 227 234 241 247 254 269 255 221 194 171 108 94 87 81 83 84 68 42 25 15 7 1 353 342 333 328 329 326 320
178 216 221 74 39 38 4 328 333 17 347 291 15 1 20 139 115 82 89 91 61 67 81 83 86 91 98 94 110 129 135 131 129 136 135 132 140 149 151 151 157 160 159 162 165 169 170 169 172 176 178 180 182 184 186 189 190 187 185 187 189 191 191 193 198 203 210 218 224 226 227 233 241 238 228 206 181 150 123 103 92 90 92 85 52 30 19 9 3 359 350 341 337 334 333 328 327
196 223 157 58 46 65 310 314 9 56 281 322 27 6 48 103 102 85 101 117 91 77 67 63 91 102 95 95 123 139 141 139 138 135 136 143 157 169 166 159 163 164 160 160 163 168 170 168 169 173 175 177 179 182 186 188 189 187 186 189 190 191 192 195 200 204 207 210 214 215 222 227 228 223 213 186 167 147 129 114 100 94 89 75 43 24 14 7 2 357 350 346 346 342 338 335 334
220 215 116 50 152 132 288 316 2 67 4 19 47 66 93 82 317 105 131 122 89 81 68 64 116 121 100 108 135 149 145 143 146 141 143 153 166 173 168 168 170 169 165 162 164 168 170 167 166 169 172 174 177 181 185 187 188 187 189 193 195 195 197 199 200 201 201 202 206 214 221 224 223 212 188 171 154 140 128 118 106 89 75 57 35 22 12 3 357 352 348 350 350 345 342 341 338
217 224 142 99 185 129 62 268 323 50 9 8 84 181 161 164 135 93 127 102 57 89 94 90 117 114 117 122 140 152 148 150 153 149 149 155 168 166 156 163 169 170 167 166 166 167 169 168 166 167 172 175 178 183 186 189 190 191 193 195 199 201 202 201 199 199 200 204 208 214 218 219 220 201 175 166 149 138 125 109 98 79 62 38 20 14 8 0 353 348 346 348 348 346 346 344 342
218 231 164 114 69 34 28 221 274 86 75 323 131 179 157 149 118 88 100 93 79 117 120 123 120 112 145 148 151 149 149 158 159 155 152 150 157 155 154 163 169 168 165 168 167 167 170 169 168 169 173 177 180 184 186 189 189 190 192 194 199 201 204 205 202 202 203 206 211 214 213 207 199 186 173 165 157 147 121 102 89 68 50 27 11 1 359 357 350 347 348 347 346 347 349 347 346
217 221 56 66 81 48 293 239 226 132 148 181 183 176 119 95 113 99 98 106 117 126 129 140 129 130 154 154 150 146 149 158 160 159 154 148 148 147 151 161 168 168 167 170 168 168 172 171 171 172 174 176 179 182 183 185 185 188 192 197 201 203 205 207 207 206 205 207 212 212 205 195 186 178 175 184 179 146 120 100 74 47 26 7 359 353 352 353 348 345 347 348 346 347 350 348 345
212 210 41 40 66 145 201 197 198 164 158 178 188 195 165 130 121 104 107 114 117 125 137 144 140 143 147 149 150 149 152 156 160 160 154 153 154 147 144 151 163 170 172 172 171 172 172 174 174 174 175 176 179 180 183 185 188 192 195 199 202 203 203 203 207 208 209 210 210 207 194 189 186 181 191 204 190 116 109 84 44 19 5 352 349 351 351 349 346 346 344 347 349 345 347 349 345
194 174 93 86 323 230 207 189 170 139 153 197 186 191 174 140 127 114 110 104 108 120 132 142 149 151 149 148 151 154 154 156 161 161 160 161 159 151 144 147 159 168 173 174 177 178 174 175 176 177 177 178 181 183 185 188 189 192 193 197 200 203 204 204 209 211 212 212 210 204 189 185 185 182 190 191 160 99 75 35 355 344 348 348 345 348 345 341 344 349 345 345 350 346 345 347 344
192 114 89 155 208 200 167 147 152 151 164 183 176 176 158 133 133 125 113 93 110 111 117 147 157 157 154 149 149 150 152 156 161 164 164 163 161 157 153 154 158 163 172 178 182 182 178 180 181 180 179 179 183 184 187 190 191 195 197 199 204 208 212 212 214 213 209 208 210 205 193 191 186 176 175 159 145 133 132 341 327 321 332 340 334 338 334 332 341 347 347 346 348 348 346 346 343
192 144 78 236 173 128 146 151 165 171 158 163 173 168 145 136 138 128 122 101 95 127 140 156 163 161 157 150 146 148 152 155 156 160 164 166 167 164 164 167 170 173 177 186 190 187 182 184 188 187 186 183 182 187 191 195 197 201 203 203 208 213 214 212 212 209 204 206 210 207 200 192 187 181 178 161 123 77 97 29 343 327 328 334 323 325 321 323 334 338 344 347 346 349 348 346 343
164 151 140 168 153 133 164 167 172 167 155 155 158 149 133 141 146 134 127 105 17 208 172 167 165 160 156 148 150 152 154 156 154 154 157 164 169 171 180 182 187 192 184 197 202 193 182 184 193 185 182 183 184 189 193 198 199 201 202 204 210 215 214 213 213 210 211 215 209 208 207 195 190 187 185 180 25 8 20 357 359 345 320 324 314 310 311 317 329 330 341 347 343 349 349 345 345
113 134 150 155 155 144 168 172 166 160 155 150 149 141 136 141 145 141 135 120 225 198 174 163 160 155 152 149 153 157 155 158 161 160 161 169 177 183 190 189 189 194 196 212 207 192 180 182 190 176 170 185 199 200 204 203 201 203 201 201 210 217 217 217 224 223 224 224 213 216 216 205 198 192 187 216 341 328 313 300 293 279 270 289 292 293 302 307 320 330 342 345 340 344 345 344 342
105 133 150 155 157 147 160 166 159 157 154 155 160 151 145 140 143 163 161 139 172 175 162 154 154 152 152 152 157 163 161 162 168 173 177 183 189 189 193 196 196 200 205 213 204 188 186 191 193 183 175 197 243 230 223 212 202 207 200 197 199 202 207 198 194 205 206 201 208 253 236 216 206 200 214 305 334 321 290 270 270 263 255 272 276 282 296 302 319 334 339 340 337 338 340 340 336
126 143 159 159 154 151 161 164 160 161 161 164 161 148 152 149 147 176 183 123 134 155 155 153 154 154 157 161 166 170 169 169 177 184 186 186 188 188 195 203 209 214 210 207 207 194 186 201 203 198 197 228 271 250 234 220 208 213 207 208 205 204 224 219 202 199 191 172 226 316 284 247 241 238 248 294 313 323 307 284 283 275 273 281 275 281 298 309 322 334 336 334 333 334 335 334 329
133 146 163 158 150 153 161 165 167 170 168 164 154 151 171 159 144 159 160 125 136 149 151 155 159 162 167 171 175 179 178 177 185 192 191 188 189 190 195 204 213 218 213 207 212 206 187 203 216 207 209 231 256 273 254 229 213 218 215 218 221 234 265 259 236 229 222 213 231 260 277 284 280 258 256 289 298 315 314 297 299 291 288 287 279 286 301 314 322 329 333 330 329 330 330 330 325
150 152 161 156 146 152 158 162 168 172 170 163 152 155 179 163 142 141 148 138 141 149 152 162 167 170 177 178 181 186 187 188 196 197 193 195 199 204 200 202 209 214 219 216 217 217 193 204 227 214 211 226 244 273 265 227 206 226 230 233 243 260 280 277 256 252 247 239 232 238 257 270 281 268 261 276 284 303 303 292 292 285 286 281 278 291 304 314 319 323 328 326 326 326 327 329 323
150 152 158 153 146 152 159 160 168 169 166 167 158 156 175 169 154 144 159 150 150 158 159 170 174 174 182 185 186 191 194 198 206 202 199 204 206 212 203 171 188 202 220 221 222 223 205 212 225 216 214 224 239 260 269 246 216 235 271 281 274 266 270 272 269 273 267 261 256 254 261 266 269 265 259 265 267 280 283 275 270 266 271 273 276 292 302 309 311 312 318 322 323 323 326 327 320
147 147 145 144 143 149 159 157 165 163 166 176 158 128 165 170 189 181 167 159 163 170 168 174 178 178 183 187 190 194 198 202 210 209 207 208 206 212 201 163 171 177 210 221 223 221 214 219 221 216 217 222 237 251 270 271 242 240 284 300 284 266 258 262 272 283 270 257 255 258 266 277 272 259 257 266 264 263 263 260 258 262 270 278 286 294 297 299 298 302 309 317 322 325 326 324 316
145 141 132 138 137 147 164 161 168 164 170 176 147 83 157 200 213 175 166 164 168 174 172 176 180 183 186 187 190 196 199 205 213 214 211 209 208 213 201 177 181 164 91 228 225 220 218 222 219 215 216 222 236 245 251 254 243 244 277 303 286 262 255 264 273 285 269 249 244 249 259 276 274 263 266 274 267 258 257 263 265 269 274 281 288 289 288 288 290 299 306 312 320 326 325 320 310
144 140 120 133 120 142 174 168 174 165 156 170 149 55 255 252 213 173 168 170 168 173 176 181 183 187 189 187 191 195 198 207 216 217 213 209 211 215 209 200 194 168 70 238 219 214 215 220 217 212 214 220 228 232 232 235 243 247 264 284 283 274 271 283 282 276 289 256 242 245 252 263 269 270 272 275 271 255 250 262 267 268 269 271 279 279 279 286 294 302 307 311 319 326 325 317 306
138 106 70 125 98 154 190 172 168 145 164 174 152 58 224 249 206 178 176 176 171 174 178 182 183 184 188 190 194 198 201 209 217 219 216 212 213 214 212 208 198 187 173 125 168 200 212 216 212 209 210 211 212 214 216 219 232 243 251 262 267 274 275 287 302 287 287 279 265 258 260 267 269 267 264 265 268 255 249 258 263 263 261 260 267 272 280 290 298 305 309 313 320 325 322 314 305
140 107 6 335 90 165 205 182 178 156 173 183 157 79 226 246 192 181 181 183 180 178 179 184 185 182 186 192 196 202 207 209 213 218 220 218 213 205 201 202 199 201 204 167 141 178 200 201 198 199 198 193 201 213 218 215 219 227 234 245 255 260 257 259 271 271 266 267 274 275 273 274 264 256 257 261 265 264 266 267 261 261 260 258 261 270 282 290 299 308 313 316 322 324 321 314 307
194 140 172 212 114 157 202 194 204 188 149 185 181 135 209 231 190 185 185 188 186 181 181 188 192 189 190 195 198 205 210 209 211 216 218 213 205 193 195 206 205 205 202 183 174 169 171 175 180 187 191 193 202 213 219 218 218 224 231 238 245 248 240 238 250 255 254 256 265 275 278 276 255 247 252 261 265 269 275 272 263 262 260 260 263 272 281 288 300 312 316 319 324 327 327 324 312
216 120 126 176 144 156 186 199 211 193 144 176 174 151 197 198 184 188 190 191 183 177 182 190 195 197 198 199 203 208 209 211 213 212 207 201 200 197 203 213 208 205 204 192 195 188 174 174 181 189 199 209 215 220 224 226 227 230 238 242 243 247 243 235 242 249 253 258 262 265 271 273 261 253 255 261 264 264 264 263 260 260 260 260 264 271 275 284 302 312 316 323 327 336 342 332 325
175 164 124 158 170 164 185 187 192 188 153 127 131 151 202 178 177 191 195 192 180 176 183 188 194 201 202 203 206 208 209 213 214 213 214 201 199 208 213 215 208 204 210 206 206 207 200 200 207 213 219 224 228 234 240 243 242 238 242 246 246 249 248 245 248 252 257 263 265 264 266 269 268 268 267 262 259 255 254 254 253 254 256 259 263 266 269 282 301 307 317 326 331 354 354 349 22
159 168 145 159 175 177 192 180 175 166 121 103 136 153 178 166 186 195 193 188 175 176 184 183 187 198 201 204 208 207 209 214 209 219 228 210 206 212 213 215 210 208 213 214 211 212 217 217 219 227 232 233 234 240 248 253 254 256 254 249 248 249 250 252 255 258 261 265 269 269 268 268 269 271 270 264 260 259 259 258 256 254 252 252 257 260 263 280 294 304 320 328 336 15 354 24 45
139 149 147 164 164 175 189 163 166 153 108 92 160 139 162 181 201 187 166 163 162 173 186 183 185 196 199 203 208 208 212 210 189 197 225 219 218 214 212 215 213 213 214 217 219 219 227 230 229 233 237 241 244 245 249 251 254 264 265 257 255 256 259 263 265 266 268 269 273 275 273 271 271 272 271 270 270 270 269 267 264 262 257 250 249 252 255 264 277 307 321 326 33 59 24 52 47
130 147 151 166 168 185 184 155 167 155 104 209 164 122 159 187 198 171 143 144 170 185 192 199 200 200 202 205 208 211 216 207 179 187 220 222 223 216 216 220 217 216 216 219 226 229 233 237 238 237 238 244 249 248 245 246 252 258 262 267 271 273 275 276 278 279 277 276 276 276 275 275 276 276 275 275 275 275 275 273 272 271 265 251 240 242 240 231 258 308 319 359 105 89 87 70 53
130 152 142 164 183 172 168 156 171 155 104 201 174 125 170 187 170 160 154 165 190 193 199 211 208 204 206 209 209 210 216 209 189 201 222 219 222 230 232 227 223 223 224 227 230 235 237 237 239 239 241 245 245 244 242 243 248 252 261 272 277 282 287 288 287 287 285 283 280 278 279 280 282 282 280 280 278 279 279 278 278 272 260 241 233 232 213 211 259 303 283 124 118 106 94 73 62
134 154 139 174 192 162 167 175 175 153 105 164 146 110 269 357 68 115 167 176 182 194 208 216 207 209 215 216 213 205 208 205 189 195 209 206 215 233 239 235 237 233 233 237 236 241 242 239 240 239 239 242 239 239 242 246 250 256 266 276 284 291 296 296 295 293 291 290 286 285 286 289 291 290 289 288 286 285 283 283 282 273 255 231 223 206 180 221 257 142 141 130 131 125 104 78 71
153 171 157 172 193 187 180 170 164 127 69 120 119 67 336 355 72 64 102 135 138 180 206 210 208 216 219 216 213 203 206 206 190 189 198 202 207 221 234 240 243 238 238 243 243 247 246 240 237 235 236 238 238 239 243 251 259 266 276 284 293 298 301 302 302 297 295 297 299 300 303 303 304 307 309 305 302 302 293 293 303 293 272 222 199 166 156 154 118 133 135 132 138 130 108 83 77
194 199 180 171 187 195 161 149 148 112 51 178 148 79 312 313 94 146 257 96 112 166 199 204 203 209 209 200 192 184 193 198 191 192 200 213 220 226 238 241 239 238 239 244 247 249 247 240 234 234 238 239 242 243 246 258 268 275 285 292 298 301 302 303 303 306 318 326 323 321 322 327 340 356 360 346 343 358 27 74 73 69 80 106 124 124 125 121 121 126 124 130 139 130 113 84 73
359 222 183 168 183 184 148 156 154 124 162 202 196 97 233 288 116 192 212 122 142 204 213 208 187 191 207 193 177 174 182 188 188 194 202 216 226 226 229 232 234 235 236 239 244 247 243 237 236 239 243 243 246 250 255 266 275 283 291 296 301 303 304 308 334 7 8 354 342 343 359 31 45 49 49 48 58 72 84 91 89 91 98 107 114 115 117 120 122 123 124 135 136 126 116 83 58
272 250 155 157 186 184 158 167 163 123 131 169 215 136 108 241 223 196 179 124 150 241 245 232 191 187 202 190 179 180 187 195 191 191 197 202 201 199 201 209 216 218 221 225 231 240 237 231 236 241 240 243 249 255 262 270 278 287 295 298 301 310 11 61 62 49 29 16 19 39 65 74 68 63 66 71 80 87 91 97 100 104 107 112 115 113 116 122 121 121 126 130 119 107 108 91 293
251 255 111 145 183 172 155 156 125 109 106 138 224 156 90 306 285 153 146 127 190 228 234 234 204 192 194 189 189 194 199 204 201 196 198 195 172 172 175 167 173 188 204 207 211 226 229 228 234 232 232 236 241 250 258 270 282 289 294 290 290 89 92 89 75 59 47 46 57 70 77 78 73 72 77 85 94 100 102 102 105 109 112 115 117 116 117 117 115 120 125 116 111 91 332 273 263
244 255 37 53 72 112 126 129 119 99 96 171 219 171 103 299 280 168 170 204 213 221 226 219 203 193 189 190 193 197 198 199 203 200 193 191 169 168 169 157 163 174 181 181 182 194 205 215 223 215 219 221 219 232 251 269 281 274 212 138 118 107 103 92 77 67 61 63 73 79 81 81 81 84 89 96 103 107 108 107 109 113 116 119 121 122 121 119 121 127 125 125 138 288 309 286 270
230 34 35 20 11 38 85 107 112 83 55 238 232 191 124 132 259 206 197 217 195 188 197 195 194 190 186 189 191 193 195 194 196 187 171 167 146 146 158 138 143 145 151 160 150 154 181 190 190 188 198 206 205 210 223 230 225 121 113 111 110 110 107 92 80 79 73 73 81 86 89 89 90 93 96 102 108 111 111 110 112 116 119 122 123 125 125 127 135 134 134 156 236 275 290 308 296
235 61 59 32 349 21 45 12 50 86 253 247 181 94 93 107 245 232 217 208 179 166 168 165 172 177 178 183 186 189 194 197 192 173 162 160 137 130 143 164 114 112 128 146 150 160 182 177 175 187 193 199 191 172 154 135 114 108 111 112 108 106 105 97 90 87 81 83 88 90 93 95 97 100 100 104 109 112 113 114 116 118 117 116 118 126 132 131 133 142 174 253 279 278 281 307 317
23 55 68 64 337 17 43 356 50 122 203 214 149 110 81 264 256 238 202 187 173 163 165 163 161 165 172 177 173 171 182 190 185 167 159 155 134 127 130 136 128 114 121 137 152 158 155 152 150 150 151 149 146 140 129 116 110 114 115 112 107 104 103 98 91 87 85 89 93 95 98 99 103 106 104 104 106 109 113 115 114 113 112 115 126 142 148 147 155 210 287 300 296 290 293 305 314
19 69 103 107 113 67 106 143 75 129 106 277 203 96 80 290 290 239 183 169 168 163 163 164 160 162 169 170 162 160 170 170 161 153 144 134 127 129 130 134 136 128 126 139 147 143 143 150 145 136 132 127 127 130 129 124 119 118 115 112 114 109 99 91 86 85 84 86 93 97 99 103 107 108 106 102 100 102 108 108 107 112 118 125 139 160 176 192 236 275 302 312 312 317 316 310 304
309 190 135 131 163 144 167 178 148 150 137 269 312 52 133 206 261 217 161 142 151 158 163 162 160 162 163 159 154 153 156 155 152 149 142 134 133 136 137 141 141 130 127 144 145 139 143 146 142 134 128 124 129 137 136 129 123 114 108 109 111 106 95 87 83 81 79 82 88 89 88 93 99 102 99 92 91 93 95 101 107 120 130 129 145 184 219 263 281 289 300 311 322 330 326 308 294
267 159 87 134 192 149 114 143 144 137 116 348 342 34 197 201 284 200 139 124 132 141 150 153 156 161 159 155 154 150 150 152 152 148 143 142 141 143 149 152 142 127 121 121 124 139 143 140 138 133 128 131 139 141 137 131 121 114 113 112 109 104 96 88 79 75 78 82 85 83 80 82 84 87 82 76 78 79 83 100 112 126 122 100 142 211 236 267 284 296 307 319 329 335 325 297 289
284 11 318 238 184 132 98 81 80 89 95 352 332 111 269 33 25 221 135 114 107 119 135 143 151 158 159 158 155 151 151 153 155 153 149 146 137 139 174 166 148 144 139 120 115 141 142 136 140 141 140 142 141 138 136 130 120 123 126 122 115 109 101 90 79 74 76 77 77 78 79 81 82 80 73 67 68 74 88 111 126 130 90 44 352 277 274 283 290 300 315 329 336 341 339 323 336
152 281 240 249 55 88 101 105 68 60 92 261 269 148 165 133 173 241 150 120 108 116 128 132 138 145 150 156 156 152 148 148 151 153 146 137 129 139 166 177 175 173 157 127 123 143 137 134 145 145 143 142 138 133 131 126 126 126 123 117 111 106 105 104 88 77 76 74 70 69 71 74 77 73 69 71 78 90 102 122 147 170 171 335 328 328 325 313 307 312 324 333 339 353 26 19 8
179 233 227 89 55 350 39 116 136 108 107 177 303 24 181 190 196 193 172 153 147 140 128 125 127 126 128 136 141 140 139 141 144 144 132 113 111 138 154 173 184 182 173 141 129 137 134 131 136 133 129 129 125 120 120 123 124 119 112 107 103 98 113 149 137 103 93 85 71 60 54 55 58 53 55 68 102 129 135 155 182 243 286 304 322 329 331 328 325 327 332 337 341 2 33 25 8
187 273 323 69 149 176 171 155 141 130 135 158 192 339 262 227 205 178 175 171 158 153 144 138 134 123 120 125 126 124 126 129 126 113 85 59 43 45 143 169 177 176 177 154 133 137 138 130 133 132 128 125 118 114 120 124 122 117 112 113 115 119 125 131 135 127 110 93 70 56 42 40 41 25 28 50 121 159 174 191 222 281 293 299 311 319 326 331 333 341 357 5 6 6 15 20 359
160 260 284 283 290 95 132 155 117 125 137 142 137 231 263 248 204 172 173 171 164 160 150 144 142 130 121 119 118 114 115 120 120 108 89 58 27 7 344 194 186 176 171 151 108 131 163 153 147 147 144 144 141 129 126 129 128 125 127 132 134 141 147 148 154 170 197 233 297 323 316 338 21 357 344 356 149 173 199 239 274 284 285 292 304 320 333 343 356 8 17 21 20 14 349 335 333
159 184 212 202 186 85 30 312 318 101 125 146 145 175 264 260 185 168 168 160 160 154 143 142 142 130 116 112 118 125 130 139 144 138 136 134 119 109 164 193 193 191 186 170 74 341 214 192 169 166 171 184 190 171 149 141 139 140 145 151 156 166 178 184 187 213 241 240 263 299 300 300 305 305 307 307 262 225 246 271 281 281 288 305 318 331 342 358 14 8 8 11 11 8 355 339 332